Location: Goettingen
(51.5300°N, 9.9433°E)
Time: 15:01:59
(UTC+02:00)

ISS - Pass Details

Date: 30 September 2022
Orbit: 414 x 417 km, 51.6° (Epoch: 28 September)

Event Time Altitude Azimuth Distance (km) Brightness Sun altitude
Rises 19:41:12 0° 282° (WNW) 2,361 2.4 -7.2°
Reaches altitude 10° 19:43:18 10° 279° (W) 1,497 0.8 -7.5°
Maximum altitude 19:46:38 62° 198° (SSW) 473 -3.4 -8.0°
Enters shadow 19:49:55 10° 117° (ESE) 1,479 -1.6 -8.5°
